Regional Weather Roundup
Issued by NWS

Home | Current Version | Previous Version | Text Only | Print | Product List | Glossary On
Versions: 1 2 3 4 5 6 7 8 9 10 11 12 13 14 15 16 17 18 19 20 21 22 23 24 25 26 27 28 29 30 31 32 33 34 35 36 37 38 39 40 41 42 43 44 45 46 47 48 49 50
000
ASCA44 KEWX 252320
RWRMX

LATIN AMERICA AND CARIBBEAN REGIONAL WEATHER ROUNDUP
NATIONAL WEATHER SERVICE AUSTIN/SAN ANTONIO TX
500 PM CST SAT FEB 25 2017

NOTE: "FAIR" INDICATED FEW OR NO CLOUDS BELOW 12,000 FEET WITH NO
SIGNIFICANT WEATHER AND/OR OBSTRUCTIONS TO VISIBILITY.

BAJA CALIFORNIA

CITY           SKY/WX    TMP DP  RH WIND       PRES   REMARKS
LORETO         SUNNY     75  57  53 N12       29.91F
LA PAZ         SUNNY     75  39  27 N9        29.95F
MEXICALI       SUNNY     68  28  22 SE8       29.97F
S.J. DEL CABO  SUNNY     84  23  10 NW15      29.90S
TIJUANA        PTSUNNY   57  41  54 W12       30.07S

NORTHWESTERN MEXICO

CITY           SKY/WX    TMP DP  RH WIND       PRES   REMARKS
CULIACAN       SUNNY     82  57  42 SW9       29.82F
DURANGO        SUNNY     79   9   7 SW8       30.00F
GUAYMAS        SUNNY     82  30  15 N14       29.86F
HERMOSILLO     SUNNY     82  18   9 W7        29.95F
CD. JUAREZ     SUNNY     66  25  20 W14       29.90F
LOS MOCHIS     SUNNY     75  45  33 NW22      29.88F
OBREGON        SUNNY     79  45  29 W7G18     29.86S

NORTHEASTERN MEXICO

CITY           SKY/WX    TMP DP  RH WIND       PRES   REMARKS
CHIHUAHUA      SUNNY     73  12   9 E17       29.93F
MATAMOROS      CLOUDY    72  59  64 NE14      30.00S
MONCLOVA         N/A    N/A N/A N/A MISG        N/A
MONTERREY      CLOUDY    70  45  40 S6        29.99F
NUEVO LAREDO   SUNNY     73  34  23 E6        30.01F
PIEDRAS NEGRAS SUNNY     72  37  28 SE9       30.02F
REYNOSA        MOSUNNY   73  50  43 NE12      29.99S
SALTILLO       SUNNY     63  41  45 N18       30.08R
TORREON        SUNNY     81   9   6 CALM      29.93F
CD. VICTORIA   PTSUNNY   81  54  39 NE14      29.95R

WESTERN MEXICO

CITY           SKY/WX    TMP DP  RH WIND       PRES   REMARKS
AGUASCALIENTES SUNNY     81  10   7 S8        30.07F
COLIMA         SUNNY     77  61  57 W12       29.91R
DEL BAJIO      SUNNY     81  28  15 S8        30.12F
GUADALAJARA    SUNNY     84  27  12 S5        30.00F
MANZANILLO     SUNNY     77  70  78 SE12      29.81S
MAZATLAN       SUNNY     77  59  53 W13       29.84F
P. VALLARTA    SUNNY     75  68  78 SW12      29.86S
URUAPAN        SUNNY     73  48  40 CALM      30.07S
ZACATECAS      SUNNY     75  19  12 W7        30.10F

CENTRAL MEXICO

CITY           SKY/WX    TMP DP  RH WIND       PRES   REMARKS
CUERNAVACA     SUNNY     86  27  11 S9        29.96F
MEXICO CITY    SUNNY     75  25  15 NE3       30.14F
MORELIA        SUNNY     81  32  17 SW13      30.07S
POZA RICA      SUNNY     82  66  57 E12       29.95F
PUEBLA         SUNNY     73  30  20 SW10      30.16F
QUERETARO      SUNNY     79  23  12 SE5       30.11F
S. LUIS POTOSI SUNNY     77  27  15 E14       30.05F
TAMPICO        MOSUNNY   77  68  73 N21       29.94S
TOLUCA         SUNNY     68  28  22 S15       30.22F

SOUTHERN MEXICO

CITY           SKY/WX    TMP DP  RH WIND       PRES   REMARKS
ACAPULCO       SUNNY     82  68  61 W12       29.82F
B. DE HUATULCO MOSUNNY   82  72  69 S12       29.90R
OAXACA         MOSUNNY   82  36  18 E13       30.04S
P. ESCONDIDO   MOSUNNY   82  73  74 SW9       29.94S
VERACRUZ       MOSUNNY   79  68  69 E17       29.90R
ZIHUATANEJO    SUNNY     84  63  48 SW9       29.85S

YUCATAN PENINSULA

CITY           SKY/WX    TMP DP  RH WIND       PRES   REMARKS
CAMPECHE       SUNNY     81  75  83 N12G23    29.81S
CANCUN         SUNNY     81  68  65 E10       29.89R
CHETUMAL       SUNNY     82  72  69 SE14      29.83S
CD. DEL CARMEN SUNNY     82  73  74 NW14      29.85R
COZUMEL        SUNNY     82  66  57 SE9       29.86R
MERIDA         SUNNY     82  68  61 N12       29.86R
MINATITLAN     SUNNY     81  72  74 N14G32    29.84R
TAPACHULA      SUNNY     86  72  62 W12       29.81S HX  92
TUX. GUTIERREZ MOSUNNY   86  55  35 W16G30    29.83R
VILLAHERMOSA   SUNNY     84  70  61 NW12      29.87R

CENTRAL AMERICA

CITY           SKY/WX    TMP DP  RH WIND       PRES   REMARKS
BELIZE CITY    MOSUNNY   84  75  74 E8        29.84R HX  92
MANAGUA        PTCLDY   N/A N/A N/A S12       29.77S

CARIBBEAN

CITY           SKY/WX    TMP DP  RH WIND       PRES   REMARKS
ARUBA          PTCLDY    81  73  78 E14       29.86R
CURACAO        PTCLDY    81  73  78 E14       29.89R
KINGSTON       PTCLDY    81  70  69 SE8       29.89S
NASSAU         PTCLDY    81  61  50 NW5       29.97R
SAN JUAN       PTCLDY    81  70  69 VRB3      29.98R
SANTO DOMINGO  PTCLDY    77  70  78 SE5       29.94R
ST. CROIX      PTCLDY    79  68  69 E8        30.00
ST. KITTS      PTCLDY    79  72  78 E12       30.00R
ST. MAARTEN    PTCLDY    79  70  73 E6        30.00R
ST. THOMAS     CLEAR     79  70  73 SE7       29.98

$$




USA.gov is the U.S. government's official web portal to all federal, state and local government web resources and services.